Flag for Norway Weather past 2 weeks in Horten, Norway

Now
45 °F

Scattered clouds.


Feels Like: 37 °F
Forecast: 35 / 63 °F
Wind: 16 mph from South

Location: Oseberg


UV Index: 0 (Low)

Visibility: N/A


Pressure: 30.24 "Hg

Humidity: 93%

Dew point: 43 °F

Location of HortenLocation

Historic Weather in Horten

°F

Horten temperature yesterday

Maximum temperature yesterday: 46 °F (at 10:50 AM)
Minimum temperature yesterday: 43 °F (at 12:50 AM)
Average temperature yesterday: 43 °F

Past Weeks' High & Low Weather Summary

 TemperatureHumidityPressure
High48 °F (Apr 6, 10:50 PM)100% (Apr 5, 2:50 PM)30.36 "Hg (Apr 5, 2:50 PM)
Low37 °F (Apr 13, 11:50 PM)50% (Apr 18, 10:50 AM)29.24 "Hg (Apr 12, 8:50 PM)
Average44 °F84%29.78 "Hg
* Reported Apr 4 7:20 PM — Apr 19 7:50 PM, Horten, Weather by CustomWeather, © 2014

Note: Actual official high and low records may vary slightly from our data, if they occured in-between our weather recording intervals... More about our weather records

Advertising

Historic Weather Conditions — Data for Previous 24 hours

 ConditionsComfort  
Time TempWeatherWind HumidityBarometerVisibility
7:50 PM
Apr 19
45 °FScattered clouds.18 mph93%30.24 "HgN/A
6:50 PM45 °FPassing clouds.21 mph93%30.21 "HgN/A
5:50 PM45 °FScattered clouds.22 mph87%30.24 "HgN/A
4:50 PM45 °FBroken clouds.21 mph93%30.24 "HgN/A
3:50 PM45 °FScattered clouds.22 mph81%30.24 "HgN/A
2:50 PM45 °FScattered clouds.21 mph81%30.24 "HgN/A
1:50 PM45 °FScattered clouds.20 mph87%30.24 "HgN/A
12:50 PM45 °FSunny.23 mph81%30.24 "Hg10 mi
11:50 AM45 °FSunny.23 mph76%30.21 "Hg10 mi
11:20 AM45 °FSunny.22 mph71%30.21 "Hg10 mi
10:50 AM45 °FSunny.20 mph76%30.21 "Hg10 mi
10:20 AM45 °FSunny.21 mph76%30.21 "Hg10 mi
8:50 AM45 °FPartly sunny.20 mph76%30.21 "HgN/A
7:50 AM43 °FScattered clouds.20 mph81%30.18 "HgN/A
7:20 AM43 °FPartly sunny.18 mph81%30.18 "HgN/A
5:50 AM43 °FPassing clouds.18 mph87%30.18 "HgN/A
4:50 AM43 °FOvercast.20 mph87%30.15 "HgN/A
3:50 AM45 °FPassing clouds.23 mph81%30.15 "HgN/A
2:50 AM45 °FPassing clouds.17 mph81%30.15 "HgN/A
1:50 AM45 °FOvercast.17 mph81%30.15 "HgN/A
12:50 AM43 °FOvercast.18 mph87%30.15 "HgN/A
11:50 PM
Apr 18
43 °FPassing clouds.18 mph81%30.15 "HgN/A
10:50 PM43 °FPassing clouds.16 mph81%30.15 "HgN/A
9:50 PM43 °FPartly cloudy.14 mph81%30.12 "HgN/A
Weather by CustomWeather, © 2014

See weather overview